THORAD AGENA D DEB

Satellite information

Favourite Embed

Satellite Type and Status

DEBRISIN ORBIT

Key statistics

Satellite THORAD AGENA D DEB at a glance.

Uptime

20122

Days in orbit

Revolutions

≈ 14.0

Per day

Orbit

SSO

Sun Synchronous Orbit

Inclination

99.7

Latest

Satellite identification and parameters

Extended collection of information and parameters for THORAD AGENA D DEB.

Object identification

Identified? True

Debris? True

Object name: THORAD AGENA D DEB

International designator: 1970-025Q

Object number (NORAD): 4612

Object ID (CCSDS): 4612

Country: UNITED STATES OF AMERICA (US)

Current information (Y/N): Y

RCS size: SMALL

Orbital parameters

Period: 102.639 minutes

Inclination: 99.6755 deg

SMA: 7261.629 km

Apoapsis: 942.898 km

Periapsis: 824.09 km

RAAN: 20.4206 deg

Eccentricy: 0.0081805

Argument of periapsis: 343.4526 deg

Mean anomaly: 16.3971 deg

Mean motion: 14.02980567 rev/day

Mean motion (dot): 0.00001442 rev/day2

B* drag term: 0.00093324 1/REarth

Two-line elements (TLE)

Creation date: May 11, 2025, 2:40 a.m.

Reference frame: TEME

Reference center: EARTH

Epoch: May 10, 2025, 4:15 p.m. UTC

TLE line 0: 0 THORAD AGENA D DEB

TLE line 1: 1 04612U 70025Q 25130.67746185 .00001442 00000-0 93324-3 0 9997

TLE line 2: 2 04612 99.6755 20.4206 0081805 343.4526 16.3971 14.02980567788461

Live tracking on map

Real-time ground track for satellite THORAD AGENA D DEB.

In-orbit conjunctions

A list of the most updated potential collisions computed for object THORAD AGENA D DEB.

Target Orbit TCA Probability of collision Miss distance Type
COSMOS 724 LEO 2025-02-25 12:21:07 0.0001919057 766.0 (m) PAYLOAD
SL-14 DEB LEO 2024-11-17 10:22:52 0.0005173755 916.0 (m) DEBRIS
NOAA 16 DEB SSO 2024-06-15 15:09:02 0.0008144442 60.0 (m) DEBRIS

Associated space launch

Meteorological research and development satellite

THORAD AGENA D DEB was lifted into orbit during the mission ‘Thorad SLV-2G Agena D | Nimbus 4’, on board a Thorad SLV-2G Agena D space rocket.

The launch took place on April 8, 1970, 8:17 a.m. from Space Launch Complex 2E.

For more information about the launch, click the button.

Launch to space Thorad SLV-2G Agena D | Nimbus 4
Thorad SLV-2G Agena D | Nimbus 4

Agency: N/A

Status: Launch Successful

Launch date: April 8, 1970, 8:17 a.m. UTC

Rocket: Thorad SLV-2G Agena D

Launch pad: Space Launch Complex 2E

Location: Vandenberg SFB, CA, USA

...

Latest news about this satellite

There are no fresh news available about this satellite. Check back as we update our databases every day.


Newsletter sign-up

Weekly statistics, charts and insights to help you stay on top of the space industry.